Погода в Бобровице

Украина / Черниговская область     50°44′28″N   31°23′02″E
темп.,
°C
ветер,
м/с
пор.,
м/с
влажн.,
%
обл.,
%
осадки,
мм/ч
давл.,
гПа
погр.,
м
28 ноября, вс
вс2823:00+5зсз35856 0.0 100395
02:00+4з23880 0.0 100437
05:00+4ююв22865 0.0 100416
08:00+3ююв33905 0.0 100531
11:00+7ююв358363 0.0 1005179
14:00+8юв487999 0.0 1004313
17:00+6юв51189100 0.0 1003228
20:00+7юв61585100 0.0 1002323
29 ноября, пн
пн2923:00+7ююв5159428 0.1 1002393
02:00+7юв51197100 0.1 1001251
05:00+6юв41098100 0.0 998247
08:00+8юв51197100 0.0 997517
11:00+9юв61190100 0.0 994550
14:00+9юв4992100 0.1 990418
17:00+9юв3798100 0.3 987262
20:00+9юз2598100 0.6 983149
30 ноября, вт
вт3023:00+7з101391100 0.5 983785
02:00+2з111995100 5.1 988993
05:00+2з121977100 1.1 9911243
08:00+2з111774100 1.2 9941358
11:00+3з111664100 0.1 9971434
14:00+3з10156899 0.1 9961451
17:00+2з813726 0.1 998946
20:00+1з7127411 0.1 999799
1 декабря, ср
ср123:00−1з612765 0.0 998738
02:00−1зюз51080100 0.0 999659
05:00−1ююз51095100 0.3 998589
08:00−1юз61296100 1.7 997635
11:00+1з61297100 0.4 997621
14:00+1зсз5989100 0.7 999998
17:00+1зсз4879100 0.1 1002612
20:000зюз2287100 0.1 100353
2 декабря, чт
чт223:00+1ююз4898100 0.0 1003405
02:000ююз61598100 1.3 1002670
05:00+3юз81587100 0.9 1000655
08:00+3юз7158492 0.9 1001563
11:00+4юз61381100 0.1 1002491
14:00+5юз5118094 0.1 1002437
17:00+4юз4118692 0.0 1003285
20:00+3ююз410885 0.0 1003196